Theta_e
317 315 321 321 319 317 316 318 323 324 326 325 326 324 323 321 319 318 317 324 319 312 312 312 313 313 315 314 314 312 316 316 317 316 316 313 315 313 312 313 317 319 328 329 332
316 315 315 321 319 316 316 318 321 323 326 327 325 324 320 315 314 314 321 325 324 317 315 312 313 313 313 314 314 314 316 316 314 314 315 314 314 312 315 317 324 330 328 329 332
314 315 315 322 319 315 315 319 320 323 324 327 324 322 319 313 313 315 320 322 326 320 319 313 315 313 313 314 313 312 315 315 314 313 313 314 314 311 312 314 320 327 329 328 331
315 315 316 321 319 316 316 319 321 323 325 326 323 320 317 313 316 314 318 318 318 311 312 312 311 312 314 315 314 314 313 313 313 313 312 313 312 311 311 312 311 325 330 329 330
314 316 315 321 318 316 316 317 323 323 323 324 321 315 313 310 311 311 312 318 316 314 314 314 311 312 313 313 313 314 314 312 312 313 313 311 313 312 311 311 318 328 330 330 329
315 316 315 320 318 315 315 317 322 323 324 321 314 313 311 314 313 310 315 318 317 315 313 319 315 313 313 313 313 312 313 311 311 312 312 313 313 311 310 310 328 330 330 329 330
312 314 315 319 317 315 316 318 322 323 323 317 314 313 309 312 311 311 316 314 317 313 310 317 316 317 314 314 310 311 313 311 311 311 313 311 313 312 310 311 327 330 329 329 329
311 314 317 319 317 316 316 320 323 322 320 315 315 312 311 312 314 312 314 313 312 311 313 313 315 313 316 313 313 312 310 312 311 310 311 312 314 313 308 313 323 326 325 326 326
311 314 316 318 316 316 317 322 322 319 317 315 313 311 312 311 312 314 314 314 313 312 311 311 312 311 310 316 317 316 312 310 311 309 310 312 313 311 307 311 314 320 323 325 326
312 311 316 317 316 316 318 321 318 317 317 315 314 311 309 309 311 314 314 313 310 310 311 312 311 313 310 317 328 325 314 309 310 310 310 310 311 309 307 306 310 313 315 318 321
312 312 318 317 316 317 319 320 319 318 314 313 313 309 308 308 311 312 313 311 309 309 312 313 313 314 313 310 310 311 310 310 309 309 310 308 311 311 308 305 306 305 305 305 309
312 317 317 316 316 317 319 320 316 314 314 308 312 308 308 310 310 310 311 309 308 309 311 313 315 312 313 311 311 310 310 309 309 309 309 309 309 307 307 306 305 306 304 303 303
312 316 316 316 317 318 320 318 315 313 311 310 311 308 308 307 308 310 308 307 307 308 311 313 312 313 315 313 312 311 310 308 310 309 308 308 309 307 307 306 306 305 303 303 304
314 317 316 317 318 319 314 313 314 311 308 310 310 310 309 307 308 308 308 307 307 309 308 309 312 313 315 316 311 314 308 309 309 309 310 306 312 305 304 306 306 307 304 305 303
315 316 316 317 317 317 313 313 309 307 316 309 309 308 308 308 308 308 308 307 307 307 307 310 308 314 314 313 309 311 308 310 309 308 307 307 305 306 302 304 304 304 305 306 302
317 316 316 317 316 314 311 310 308 310 313 310 308 309 309 307 308 306 308 306 305 306 307 307 305 310 312 309 309 307 309 307 306 305 308 306 305 305 302 304 305 303 302 303 301
316 315 316 315 315 311 310 308 310 308 306 308 309 309 309 308 308 307 310 307 307 308 308 306 307 306 306 308 307 307 310 309 310 309 310 303 303 309 304 302 304 304 303 300 300
316 316 315 315 311 309 309 309 303 306 307 306 309 309 308 308 308 306 309 311 305 305 306 309 310 306 305 307 308 308 307 310 310 309 306 304 306 306 304 304 301 302 304 303 303
316 315 313 310 310 309 309 311 307 307 306 309 308 309 308 308 307 307 308 310 308 303 307 307 308 307 306 307 307 307 310 306 308 303 310 306 304 304 304 303 306 305 304 304 304
316 314 313 310 309 308 309 308 305 305 307 308 309 307 309 308 308 306 307 308 308 304 304 305 308 308 307 306 306 306 306 309 308 310 309 306 305 305 305 306 305 307 305 304 304
315 316 312 309 310 309 311 307 306 306 308 307 307 306 307 308 306 306 307 306 307 304 304 305 307 308 307 307 306 305 307 306 307 310 311 308 306 302 305 305 305 307 306 305 304
314 316 310 310 312 310 310 305 308 308 307 307 306 305 307 307 307 306 306 306 304 303 305 307 306 307 307 307 307 306 306 307 309 308 306 308 308 303 302 305 303 306 306 304 304
314 312 310 310 313 312 307 307 309 310 310 306 306 306 306 307 308 307 306 306 304 306 307 307 306 304 309 307 307 307 306 305 304 306 309 310 308 302 305 305 305 304 304 304 304
307 314 312 312 307 311 310 308 311 311 311 309 306 305 306 307 308 308 308 309 305 306 309 308 307 307 309 308 307 309 307 305 306 308 307 307 308 305 305 306 307 305 303 304 304
306 313 311 313 311 311 309 308 310 312 311 310 309 307 307 307 308 309 310 310 309 309 308 307 305 305 308 307 307 306 308 306 307 308 308 308 305 306 304 305 306 306 304 305 304
306 313 310 312 309 310 309 307 309 312 311 312 308 306 306 307 307 309 309 309 309 309 307 305 302 305 305 307 308 308 307 308 308 307 307 305 304 304 304 304 307 306 305 306 306
299 302 311 312 309 310 309 307 309 310 310 309 308 309 310 309 307 308 307 307 307 308 307 307 303 305 305 306 307 307 306 306 306 306 306 306 307 303 304 304 305 307 306 306 306
Wind_Speed
32 41 33 44 45 40 39 44 38 31 32 29 24 19 16 14 14 16 10 13 13 14 8 9 7 3 6 4 4 4 3 3 6 6 4 4 4 2 2 6 0 2 7 5 32
30 30 39 44 47 43 39 42 42 35 33 28 26 20 19 16 13 10 13 20 23 15 9 8 5 4 3 4 2 4 4 8 6 4 4 4 4 7 4 4 1 1 4 27 34
29 32 39 46 48 45 40 41 43 37 33 31 29 25 23 19 3 9 25 23 25 16 14 6 6 3 2 3 4 4 5 4 3 4 5 5 5 3 8 4 6 9 10 21 26
33 35 43 45 48 45 41 44 43 39 35 33 30 27 24 17 8 4 19 25 24 16 11 10 4 2 4 5 4 5 5 5 4 2 3 6 7 6 6 7 7 11 22 22 18
35 36 41 47 48 46 44 45 43 40 38 35 32 31 24 3 7 4 11 25 24 19 12 6 6 4 4 5 5 4 2 5 4 2 2 6 4 6 6 1 6 12 13 17 20
30 36 40 51 50 46 45 46 42 42 39 37 36 33 9 4 2 4 18 27 23 21 14 7 5 4 3 2 5 6 5 2 5 4 2 4 2 4 6 5 8 13 12 13 19
28 35 37 52 50 46 45 44 43 43 42 40 37 24 5 9 2 7 24 24 23 18 7 12 5 4 3 1 7 2 6 3 2 2 2 5 1 7 2 8 11 11 10 8 13
26 37 39 53 50 47 44 44 44 43 42 42 35 13 5 7 3 14 26 19 17 13 13 9 11 5 5 3 6 2 3 5 1 4 2 6 8 7 5 9 11 10 8 8 9
25 34 31 52 50 46 45 46 42 40 40 40 22 7 4 6 5 20 25 19 17 11 5 11 11 4 4 5 4 3 4 3 3 3 2 4 7 5 7 6 9 10 11 11 10
29 36 40 51 51 49 48 49 42 41 36 23 10 6 4 7 10 18 20 22 5 7 5 4 3 4 2 8 15 8 4 3 6 3 2 5 7 5 4 8 10 8 10 10 11
32 38 56 50 52 52 53 46 13 8 23 6 11 3 7 11 14 11 21 17 4 3 5 5 5 16 16 6 1 7 8 4 5 5 3 7 7 11 4 4 7 8 8 9 12
35 49 53 50 53 55 52 15 32 16 10 5 17 1 5 13 6 6 22 7 6 5 6 3 17 7 6 2 2 3 5 7 2 2 4 1 10 9 3 7 9 10 8 12 6
46 46 53 52 55 55 41 25 29 43 6 2 7 2 5 5 4 10 12 5 7 6 8 5 4 7 6 4 6 4 5 4 3 2 3 2 6 7 5 6 5 7 9 7 11
52 64 57 54 49 46 15 39 46 27 5 4 5 5 4 7 4 5 11 7 4 9 6 3 3 14 12 16 8 10 6 4 4 4 4 2 9 6 7 9 7 13 9 13 11
55 63 60 66 41 25 31 48 35 6 6 11 4 5 6 9 12 4 7 3 10 6 8 7 10 12 15 8 8 5 5 6 3 3 2 2 1 7 1 7 9 15 14 17 10
60 63 63 43 26 35 47 39 12 4 6 8 9 10 9 4 2 5 6 3 5 6 3 8 3 11 13 9 10 7 5 4 3 3 3 7 7 5 6 8 6 7 12 12 10
62 61 60 36 19 50 46 15 6 5 10 8 8 12 10 5 4 6 15 7 7 8 8 3 3 2 5 6 3 8 11 2 1 2 6 1 4 13 6 7 6 8 9 8 8
62 62 41 29 52 52 35 11 5 7 13 3 9 18 8 8 2 3 14 14 7 4 6 10 8 8 4 6 8 8 7 5 7 5 2 2 7 6 8 3 7 7 4 4 6
60 44 30 42 51 44 17 16 10 16 8 10 13 20 5 7 7 7 12 21 11 10 7 8 6 2 2 2 8 5 9 4 6 2 3 4 6 9 6 9 7 7 5 8 8
47 22 22 48 47 28 15 9 5 6 11 20 10 8 16 18 6 9 14 14 10 9 3 7 5 1 2 2 1 8 10 4 2 4 3 3 5 5 4 12 9 8 9 7 6
22 12 26 47 40 14 19 8 4 5 18 8 7 7 9 15 8 11 17 3 13 9 3 5 5 2 2 6 8 3 3 2 4 4 5 1 6 8 15 7 9 9 8 9 8
11 8 35 47 15 13 18 9 5 8 2 5 6 5 13 17 6 10 14 7 14 10 8 2 5 4 6 2 2 1 7 10 6 8 1 3 9 2 7 5 7 7 7 6 6
13 5 31 44 15 19 9 7 4 7 6 8 6 4 7 12 5 3 7 3 10 16 12 8 1 3 3 3 1 4 4 4 5 3 7 7 7 1 5 5 4 7 8 7 7
4 7 8 14 1 23 20 21 5 0 5 4 7 7 10 10 2 9 6 4 8 8 8 8 4 8 12 5 8 5 5 4 5 3 3 7 4 6 5 5 4 2 5 8 9
1 10 11 18 15 27 23 22 7 8 2 6 2 13 12 6 4 7 5 5 2 7 5 6 6 4 2 2 3 5 10 10 8 17 10 17 9 13 5 6 6 3 5 7 8
4 13 7 18 17 26 25 21 12 5 6 4 10 15 8 9 9 7 8 4 8 1 15 2 3 3 1 2 2 1 7 16 23 16 19 3 7 3 3 5 5 8 8 9 11
1 2 14 27 21 22 27 23 15 13 3 5 13 7 5 5 6 8 3 6 10 10 15 12 7 4 5 1 3 5 10 13 12 15 12 15 15 6 5 8 8 9 11 12 12
Wind_Direction
226 231 216 209 209 211 214 214 209 207 199 199 197 195 197 183 178 184 212 213 200 174 168 177 191 152 90 73 85 129 84 195 204 156 240 164 148 180 84 125 343 117 151 177 160
225 226 236 211 207 208 208 211 207 205 200 197 191 188 179 168 164 220 212 206 191 182 189 183 153 132 61 126 188 125 146 211 192 193 216 196 164 171 128 138 65 76 52 137 153
232 227 225 212 202 204 204 204 202 201 200 195 188 180 173 162 87 238 210 190 190 200 205 199 175 94 114 124 213 171 188 184 241 221 206 191 172 184 133 233 207 183 149 146 154
230 228 223 206 199 202 200 201 198 197 195 192 183 175 168 161 182 177 185 178 174 179 155 155 116 138 141 183 205 125 237 193 200 202 135 187 139 177 183 218 184 175 161 154 166
233 229 226 200 196 198 198 200 192 190 193 186 175 166 155 200 249 184 190 178 178 181 174 143 148 149 189 194 127 157 260 198 259 116 187 150 198 185 215 136 120 128 162 168 173
243 227 231 194 194 195 198 195 191 189 190 178 166 159 139 193 202 195 173 178 181 182 188 176 151 163 107 240 163 192 184 244 274 126 124 185 176 141 228 130 135 150 179 181 186
239 232 232 188 193 194 195 190 187 188 184 173 166 162 113 208 270 198 170 176 171 178 142 189 141 69 98 136 334 111 169 312 212 257 183 131 309 233 213 150 162 174 184 196 202
243 231 224 186 189 193 187 182 179 185 172 168 163 171 198 220 165 168 169 166 173 163 168 146 173 107 95 319 2 178 92 192 289 173 109 126 242 247 192 154 175 188 188 203 216
258 225 219 187 186 185 179 173 177 168 166 165 160 144 236 170 162 161 169 153 175 179 137 152 133 135 97 88 357 315 200 159 314 221 128 160 235 245 178 198 196 195 201 204 222
246 229 215 187 184 179 173 161 160 158 144 144 142 81 211 195 157 154 171 157 133 137 93 122 108 136 145 163 218 213 239 198 183 209 277 186 243 278 197 184 214 211 210 208 216
235 224 182 188 182 172 160 146 158 154 163 169 166 198 139 142 141 150 160 147 96 128 165 187 149 196 185 161 265 184 199 210 198 148 214 218 237 242 192 207 236 229 232 234 225
224 193 181 185 177 167 162 169 159 155 142 78 161 91 143 138 113 141 153 135 148 172 144 143 214 157 149 152 234 243 195 199 339 85 150 115 260 266 230 226 211 212 231 232 232
208 188 182 181 168 162 170 162 152 139 111 82 164 165 162 116 114 172 147 117 120 138 196 176 170 142 211 207 227 213 203 177 154 143 109 85 277 252 240 241 225 233 225 233 230
192 181 182 171 157 164 160 150 150 139 98 155 155 257 141 128 90 162 160 139 131 174 121 227 215 174 196 225 197 225 199 171 139 129 199 142 254 256 235 238 226 237 231 233 225
188 175 174 168 157 174 156 155 155 104 147 153 164 165 146 162 135 235 175 81 149 155 139 214 172 181 210 194 179 203 177 190 172 143 111 168 260 265 316 247 242 242 232 231 217
174 175 168 166 163 154 153 148 127 123 195 167 147 170 145 153 145 126 147 91 139 126 165 203 173 179 190 174 192 155 80 43 63 95 264 199 182 243 202 208 240 243 236 216 196
175 172 165 159 155 151 148 131 142 160 151 173 162 164 157 141 111 149 176 166 160 138 182 146 228 221 144 132 132 170 143 171 237 181 223 79 157 241 257 242 227 252 259 218 176
170 165 164 157 152 148 147 148 131 140 175 166 131 144 154 136 76 161 149 190 225 140 126 171 213 172 188 188 175 192 159 167 188 191 189 90 224 248 233 273 255 271 273 149 155
159 158 150 147 155 150 155 181 186 167 158 129 102 153 148 196 140 146 192 194 186 186 155 161 212 321 189 167 152 186 193 159 101 12 82 203 286 297 249 265 257 241 188 190 180
158 146 151 155 152 157 167 171 141 152 128 143 149 155 177 179 141 177 173 196 196 181 211 187 163 322 232 163 138 181 161 180 22 132 232 280 278 236 266 236 221 218 204 193 184
156 148 154 155 153 160 187 184 145 183 141 142 149 147 168 178 162 183 185 235 185 178 171 143 112 219 177 213 158 136 186 111 126 156 183 194 253 218 228 215 217 217 205 190 183
152 160 156 152 158 183 185 166 152 159 200 124 103 106 166 167 144 174 190 178 172 146 165 162 112 148 206 238 125 332 182 180 183 222 239 147 255 239 236 226 215 206 191 180 170
144 125 162 166 173 186 157 186 156 149 164 153 131 155 142 158 135 181 175 186 170 165 165 178 112 77 4 357 11 214 210 164 111 74 199 197 247 339 288 282 265 211 186 169 170
124 145 154 188 99 174 174 188 140 221 150 129 117 109 121 163 27 174 153 192 195 177 152 119 138 170 203 212 136 195 189 175 142 171 173 232 221 280 265 284 291 238 174 167 175
165 163 158 171 195 178 180 178 155 166 205 178 107 158 151 145 121 155 143 132 75 160 143 136 174 147 80 319 122 186 179 168 190 218 195 235 201 237 218 225 253 217 171 167 177
156 155 156 175 162 171 179 196 167 126 135 185 146 163 158 153 187 167 125 180 172 130 187 180 181 120 22 23 193 167 196 201 211 219 230 97 248 232 210 136 177 206 180 195 197
304 342 156 160 167 171 190 181 176 127 10 131 138 119 117 161 112 129 74 114 155 162 183 184 131 125 223 22 98 309 211 211 219 219 204 219 233 174 205 212 208 208 203 208 207